Flag for U.S.A. Weather past 2 weeks in Oberlin, Ohio, U.S.A.

Now
43 °F

Scattered clouds.


Feels Like: 41 °F
Forecast: 34 / 61 °F
Wind: 3 mph from East

Location: Lorain County Regional Airport


UV Index: 3 (Moderate)

Visibility: 10 mi


Pressure: 30.20 "Hg

Humidity: 56%

Dew point: 28 °F

Location of OberlinLocation

Historic Weather in Oberlin

°F

Oberlin temperature yesterday

Maximum temperature yesterday: 51 °F (at 4:53 PM)
Minimum temperature yesterday: 38 °F (at 11:53 PM)
Average temperature yesterday: 45 °F

Past Weeks' High & Low Weather Summary

 TemperatureHumidityPressure
High80 °F (Apr 13, 4:53 PM)89% (Apr 11, 4:53 AM)30.50 "Hg (Apr 11, 4:53 AM)
Low25 °F (Apr 16, 6:53 AM)20% (Apr 21, 12:53 PM)29.55 "Hg (Apr 14, 7:53 AM)
Average53 °F55%30.05 "Hg
* Reported Apr 9 7:53 AM — Apr 24 7:53 AM, Oberlin, Weather by CustomWeather, © 2014

Note: Actual official high and low records may vary slightly from our data, if they occured in-between our weather recording intervals... More about our weather records

Advertising

Historic Weather Conditions — Data for Previous 24 hours

 ConditionsComfort  
Time TempWeatherWind HumidityBarometerVisibility
7:53 AM
Apr 24
43 °FScattered clouds.3 mph56%30.20 "Hg10 mi
6:53 AM39 °FPassing clouds.3 mph79%30.18 "Hg10 mi
5:53 AM39 °FClear.No wind79%30.16 "Hg10 mi
4:53 AM38 °FClear.No wind83%30.16 "Hg9 mi
3:53 AM36 °FClear.No wind79%30.14 "Hg10 mi
2:53 AM37 °FClear.No wind73%30.13 "Hg10 mi
1:53 AM38 °FClear.No wind73%30.14 "Hg10 mi
12:53 AM39 °FClear.No wind70%30.15 "Hg10 mi
11:53 PM
Apr 23
38 °FClear.No wind73%30.15 "Hg10 mi
10:53 PM40 °FClear.No wind65%30.15 "Hg10 mi
9:53 PM43 °FClear.3 mph60%30.14 "Hg10 mi
8:53 PM44 °FSunny.3 mph55%30.12 "Hg10 mi
7:53 PM48 °FSunny.6 mph48%30.11 "Hg10 mi
6:53 PM51 °FSunny.10 mph39%30.11 "Hg10 mi
5:53 PM51 °FSunny.7 mph42%30.10 "Hg10 mi
4:53 PM51 °FSunny.7 mph44%30.10 "Hg10 mi
3:53 PM50 °FPassing clouds.5 mph48%30.11 "Hg10 mi
2:53 PM49 °FPassing clouds.9 mph50%30.11 "Hg10 mi
1:53 PM47 °FMostly cloudy.14 mph54%30.11 "Hg10 mi
12:53 PM44 °FMostly cloudy.13 mph63%30.11 "Hg10 mi
11:53 AM43 °FOvercast.12 mph65%30.10 "Hg10 mi
10:53 AM42 °FOvercast.16 mph68%30.09 "Hg10 mi
9:53 AM42 °FOvercast.13 mph65%30.07 "Hg10 mi
Weather by CustomWeather, © 2014

See weather overview